EW6288 Weather Reports


Display with metric or nautical units.
time (UTC)temp
F
wind
direction
speed
MPH
gust
MPH
rain 1hr
in
rain 24hr
in
rain mn
in
humidity
%
barometer
mb
20260901181848 87 50 1.0 5.0 0.00 0.00 0.00 74 1014.3
20260901181843 87 35 1.0 5.0 0.00 0.00 0.00 72 1014.3
20260901180843 87 61 1.0 5.0 0.00 0.00 0.00 74 1014.4
20260901180612 87 333 1.0 5.0 0.00 0.00 0.00 74 1014.5
20260901175842 87 23 2.0 5.0 0.00 0.00 0.00 76 1014.6
20260901175342 87 5 1.0 5.0 0.00 0.00 0.00 76 1014.7
20260901174840 88 49 1.0 3.0 0.00 0.00 0.00 73 1014.8
20260901174339 88 5 1.0 4.0 0.00 0.00 0.00 72 1014.9
20260901173838 88 0 1.0 4.0 0.00 0.00 0.00 74 1015.0
20260901173338 88 65 1.0 3.0 0.00 0.00 0.00 75 1015.2
20260901173110 88 36 1.0 4.0 0.00 0.00 0.00 74 1015.2
20260901172343 88 309 2.0 8.0 0.00 0.00 0.00 74 1015.3
20260901172338 88 323 1.0 4.0 0.00 0.00 0.00 73 1015.3
20260901171337 87 44 1.0 8.0 0.00 0.00 0.00 76 1015.5
20260901170837 87 9 1.0 5.0 0.00 0.00 0.00 76 1015.6
20260901170337 86 342 2.0 5.0 0.00 0.00 0.00 77 1015.7
20260901165835 86 5 1.0 5.0 0.00 0.00 0.00 77 1015.7
20260901165335 86 53 1.0 5.0 0.00 0.00 0.00 77 1015.7
20260901164834 86 53 2.0 5.0 0.00 0.00 0.00 79 1015.8
20260901164334 86 24 2.0 5.0 0.00 0.00 0.00 79 1015.8
20260901163835 85 0 2.0 5.0 0.00 0.00 0.00 79 1015.8
20260901163604 85 355 1.0 4.0 0.00 0.00 0.00 79 1015.8
20260901162833 85 55 1.0 4.0 0.00 0.00 0.00 80 1015.7
20260901162334 85 56 2.0 7.0 0.00 0.00 0.00 80 1015.8
20260901161829 85 308 2.0 7.0 0.00 0.00 0.00 81 1015.7
20260901161330 85 317 1.0 7.0 0.00 0.00 0.00 81 1015.6
20260901160827 85 348 2.0 6.0 0.00 0.00 0.00 81 1015.7
20260901160328 85 24 2.0 6.0 0.00 0.00 0.00 81 1015.6
20260901155826 84 58 2.0 6.0 0.00 0.00 0.00 82 1015.5
20260901155326 84 308 1.0 6.0 0.00 0.00 0.00 82 1015.4
20260901154823 84 336 2.0 7.0 0.00 0.00 0.00 82 1015.4
20260901154322 84 342 2.0 7.0 0.00 0.00 0.00 83 1015.4
20260901154053 84 9 2.0 7.0 0.00 0.00 0.00 83 1015.6
20260901153320 84 5 2.0 6.0 0.00 0.00 0.00 84 1015.5
20260901152820 84 0 1.0 4.0 0.00 0.00 0.00 84 1015.4
20260901152315 83 0 1.0 3.0 0.00 0.00 0.00 85 1015.4
20260901151813 83 0 1.0 5.0 0.00 0.00 0.00 85 1015.5
20260901151313 83 0 2.0 5.0 0.00 0.00 0.00 85 1015.5
20260901150817 83 322 1.0 5.0 0.00 0.00 0.00 86 1015.5
20260901150813 83 313 1.0 5.0 0.00 0.00 0.00 85 1015.5
20260901150041 83 304 1.0 5.0 0.00 0.00 0.00 86 1015.6
20260901145309 83 310 1.0 4.0 0.00 0.00 0.00 86 1015.5
20260901144810 82 333 1.0 4.0 0.00 0.00 0.00 86 1015.4
20260901144536 82 355 1.0 3.0 0.00 0.00 0.00 86 1015.4
20260901143803 82 350 1.0 3.0 0.00 0.00 0.00 87 1015.4
20260901143533 82 351 0.0 3.0 0.00 0.00 0.00 87 1015.5
20260901142803 82 333 0.0 4.0 0.00 0.00 0.00 87 1015.6
20260901142300 82 308 1.0 4.0 0.00 0.00 0.00 87 1015.6
20260901141801 82 307 1.0 4.0 0.00 0.00 0.00 87 1015.6
20260901141301 81 328 1.0 4.0 0.00 0.00 0.00 88 1015.7
20260901140804 81 0 1.0 3.0 0.00 0.00 0.00 88 1015.6
20260901140758 81 301 1.0 4.0 0.00 0.00 0.00 88 1015.6
20260901135756 81 0 1.0 3.0 0.00 0.00 0.00 88 1015.6
20260901135255 81 0 1.0 2.0 0.00 0.00 0.00 88 1015.6
20260901134754 81 0 1.0 3.0 0.00 0.00 0.00 88 1015.7
20260901134255 81 0 0.0 3.0 0.00 0.00 0.00 88 1015.8
20260901133755 81 0 1.0 3.0 0.00 0.00 0.00 88 1015.9
20260901133255 81 0 1.0 4.0 0.00 0.00 0.00 88 1015.8
20260901132755 81 0 1.0 4.0 0.00 0.00 0.00 88 1015.7
20260901132253 81 0 0.0 2.0 0.00 0.00 0.00 87 1015.7
20260901131753 80 0 0.0 3.0 0.00 0.00 0.00 87 1015.6
20260901131253 80 0 1.0 3.0 0.00 0.00 0.00 87 1015.5
20260901130753 80 0 1.0 3.0 0.00 0.00 0.00 87 1015.3
20260901130523 80 0 1.0 3.0 0.00 0.00 0.00 87 1015.2
20260901125752 80 0 1.0 3.0 0.00 0.00 0.00 87 1015.1
20260901125252 80 0 0.0 3.0 0.00 0.00 0.00 87 1015.1
20260901124752 80 0 1.0 3.0 0.00 0.00 0.00 87 1015.1
20260901124523 80 0 1.0 3.0 0.00 0.00 0.00 87 1015.1
20260901123753 80 0 0.0 2.0 0.00 0.00 0.00 87 1015.0
20260901123250 80 0 0.0 2.0 0.00 0.00 0.00 87 1014.9
20260901122750 80 0 1.0 2.0 0.00 0.00 0.00 87 1014.8
20260901122520 80 0 0.0 2.0 0.00 0.00 0.00 87 1014.8
20260901121750 80 0 0.0 1.0 0.00 0.00 0.00 86 1014.7
20260901121520 80 0 0.0 1.0 0.00 0.00 0.00 86 1014.7
20260901121017 80 0 0.0 0.0 0.00 0.00 0.00 86 1014.6
20260901120245 80 0 0.0 0.0 0.00 0.00 0.00 86 1014.5
20260901115749 80 0 0.0 0.0 0.00 0.00 0.00 86 1014.6
20260901115518 80 0 0.0 0.0 0.00 0.00 0.00 86 1014.6
20260901114746 80 0 0.0 0.0 0.00 0.00 0.00 86 1014.5
20260901114243 80 0 0.0 0.0 0.00 0.00 0.00 86 1014.5
20260901113741 80 0 0.0 0.0 0.00 0.00 0.00 86 1014.5
20260901113511 80 0 0.0 1.0 0.00 0.00 0.00 86 1014.5
20260901112739 80 0 0.0 1.0 0.00 0.00 0.00 86 1014.5
20260901112240 80 0 0.0 1.0 0.00 0.00 0.00 86 1014.5
20260901111743 81 0 0.0 1.0 0.00 0.00 0.00 86 1014.4
20260901111739 80 0 0.0 1.0 0.00 0.00 0.00 86 1014.5
20260901110741 81 0 0.0 1.0 0.00 0.00 0.00 86 1014.5
20260901110508 80 0 0.0 1.0 0.00 0.00 0.00 85 1014.5
20260901105736 81 0 0.0 1.0 0.00 0.00 0.00 85 1014.4
20260901105237 81 0 0.0 1.0 0.00 0.00 0.00 86 1014.4
20260901104736 81 0 0.0 1.0 0.00 0.00 0.00 85 1014.3
20260901104230 81 0 0.0 1.0 0.00 0.00 0.00 85 1014.3
20260901103733 81 0 0.0 1.0 0.00 0.00 0.00 85 1014.3
20260901103230 81 0 0.0 1.0 0.00 0.00 0.00 85 1014.3
20260901102729 81 0 0.0 1.0 0.00 0.00 0.00 85 1014.3
20260901102229 81 0 0.0 1.0 0.00 0.00 0.00 85 1014.3
20260901102000 81 0 0.0 0.0 0.00 0.00 0.00 85 1014.2
20260901101231 81 0 0.0 0.0 0.00 0.00 0.00 85 1014.3
20260901100730 81 0 0.0 0.0 0.00 0.00 0.00 85 1014.3
20260901100227 81 0 0.0 0.0 0.00 0.00 0.00 85 1014.3
20260901095726 81 0 0.0 0.0 0.00 0.00 0.00 85 1014.3
20260901095225 81 0 0.0 0.0 0.00 0.00 0.00 85 1014.3
20260901094726 81 0 0.0 0.0 0.00 0.00 0.00 85 1014.4
20260901094225 81 0 0.0 0.0 0.00 0.00 0.00 85 1014.4
20260901093955 81 0 0.0 0.0 0.00 0.00 0.00 85 1014.4
20260901093222 81 0 0.0 0.0 0.00 0.00 0.00 85 1014.4
20260901092723 81 0 0.0 0.0 0.00 0.00 0.00 85 1014.3
20260901092222 81 0 0.0 0.0 0.00 0.00 0.00 85 1014.4
20260901091717 81 0 0.0 1.0 0.00 0.00 0.00 84 1014.6
20260901091215 81 0 0.0 1.0 0.00 0.00 0.00 85 1014.6
20260901090717 81 0 0.0 1.0 0.00 0.00 0.00 84 1014.6
20260901090218 81 0 0.0 1.0 0.00 0.00 0.00 85 1014.5
20260901085942 81 0 0.0 0.0 0.00 0.00 0.00 85 1014.6
20260901085213 81 0 0.0 0.0 0.00 0.00 0.00 85 1014.6
20260901084709 82 0 0.0 1.0 0.00 0.00 0.00 85 1014.6
20260901084205 82 0 0.0 1.0 0.00 0.00 0.00 85 1014.5
20260901083936 82 0 0.0 1.0 0.00 0.00 0.00 85 1014.5
20260901083437 82 0 0.0 1.0 0.00 0.00 0.00 84 1014.4
20260901083051 82 0 0.0 1.0 0.00 0.00 0.00 85 1014.4
20260901082936 82 0 0.0 1.0 0.00 0.00 0.00 84 1014.4
20260901081703 82 0 0.0 0.0 0.00 0.00 0.00 84 1014.4
20260901081159 82 0 0.0 0.0 0.00 0.00 0.00 84 1014.5
20260901080656 82 0 0.0 0.0 0.00 0.00 0.00 84 1014.6
20260901080153 82 0 0.0 0.0 0.00 0.00 0.00 84 1014.7
20260901075653 82 0 0.0 0.0 0.00 0.00 0.00 84 1014.8
20260901075150 82 0 0.0 0.0 0.00 0.00 0.00 84 1014.8
20260901074650 82 0 0.0 0.0 0.00 0.00 0.00 84 1014.8
20260901074417 82 0 0.0 0.0 0.00 0.00 0.00 83 1014.8
20260901073644 82 0 0.0 0.0 0.00 0.00 0.00 83 1014.8
20260901073142 82 0 0.0 0.0 0.00 0.00 0.00 83 1014.8
20260901072640 82 0 0.0 0.0 0.00 0.00 0.00 83 1014.8
20260901072140 82 0 0.0 0.0 0.00 0.00 0.00 83 1014.6
20260901071641 82 0 0.0 0.0 0.00 0.00 0.00 83 1014.7
20260901071137 82 0 0.0 0.0 0.00 0.00 0.00 83 1014.7
20260901070637 82 0 0.0 0.0 0.00 0.00 0.00 82 1014.9
20260901070403 82 0 0.0 0.0 0.00 0.00 0.00 82 1014.9
20260901065630 83 0 0.0 1.0 0.00 0.00 0.00 82 1014.8
20260901065129 82 0 0.0 1.0 0.00 0.00 0.00 82 1014.8
20260901064631 83 0 0.0 1.0 0.00 0.00 0.00 82 1014.7
20260901064128 83 0 0.0 1.0 0.00 0.00 0.00 82 1014.8
20260901063625 83 0 0.0 1.0 0.00 0.00 0.00 82 1014.9
20260901063124 83 0 0.0 0.0 0.00 0.00 0.00 82 1014.9
20260901062624 83 0 0.0 0.0 0.00 0.00 0.00 82 1014.9
20260901062353 83 0 0.0 0.0 0.00 0.00 0.00 82 1014.9
20260901061621 83 0 0.0 0.0 0.00 0.00 0.00 82 1014.9
20260901061120 83 0 0.0 1.0 0.00 0.00 0.00 81 1014.9
20260901060621 83 0 0.0 1.0 0.00 0.00 0.00 81 1014.9
20260901060122 83 0 0.0 1.0 0.00 0.00 0.00 81 1015.0
20260901055620 83 0 0.0 1.0 0.00 0.00 0.00 81 1015.0
20260901055121 83 0 0.0 0.0 0.00 0.00 0.00 81 1014.9
20260901054858 84 0 0.0 1.0 0.00 0.00 0.00 81 1015.0
20260901054621 83 0 0.0 1.0 0.00 0.00 0.00 81 1015.0
20260901053619 84 0 0.0 1.0 0.00 0.00 0.00 81 1014.9
20260901053119 84 0 0.0 1.0 0.00 0.00 0.00 81 1014.8
20260901052618 84 0 0.0 0.0 0.00 0.00 0.00 81 1014.8
20260901052120 84 0 0.0 0.0 0.00 0.00 0.00 80 1014.8
20260901051623 84 0 0.0 1.0 0.00 0.00 0.00 80 1014.8
20260901051618 84 0 0.0 0.0 0.00 0.00 0.00 80 1014.8
20260901050849 84 0 0.0 1.0 0.00 0.00 0.00 80 1014.7
20260901050118 84 0 0.0 0.0 0.00 0.00 0.00 81 1014.6
20260901045617 84 0 0.0 0.0 0.00 0.00 0.00 81 1014.6
20260901045116 84 0 0.0 2.0 0.00 0.00 0.00 80 1014.5
20260901044617 85 0 0.0 2.0 0.00 0.00 0.00 80 1014.5
20260901044114 85 0 0.0 2.0 0.00 0.00 0.00 80 1014.6
20260901043613 85 0 0.0 2.0 0.00 0.00 0.00 80 1014.6
20260901043343 85 0 0.0 2.0 0.00 0.00 0.00 80 1014.5
20260901042613 85 0 0.0 2.0 0.00 0.00 0.00 80 1014.5
20260901042114 85 0 0.0 2.0 0.00 0.00 0.00 80 1014.6
20260901041614 85 0 0.0 3.0 0.00 0.00 0.00 80 1014.6
20260901041114 85 0 0.0 3.0 0.00 0.00 0.00 80 1014.6
20260901040612 85 0 0.0 3.0 0.00 0.00 0.00 80 1014.6
20260901040112 85 0 1.0 4.0 0.00 0.00 0.00 80 1014.5
20260901035613 85 0 1.0 4.0 0.00 0.00 0.00 80 1014.6
20260901035113 85 0 1.0 4.0 0.00 0.00 0.00 80 1014.6
20260901034609 85 0 1.0 5.0 0.00 0.00 0.00 80 1014.6
20260901034340 85 0 1.0 5.0 0.00 0.00 0.00 80 1014.6
20260901033610 85 0 1.0 4.0 0.00 0.00 0.00 80 1014.5
20260901033109 85 0 1.0 4.0 0.00 0.00 0.00 80 1014.5
20260901032605 85 0 0.0 4.0 0.00 0.00 0.00 79 1014.4
20260901032106 85 0 0.0 4.0 0.00 0.00 0.00 79 1014.5
20260901031838 85 0 1.0 4.0 0.00 0.00 0.00 79 1014.3
20260901031338 85 0 1.0 4.0 0.00 0.00 0.00 78 1014.2
20260901030608 85 0 1.0 4.0 0.00 0.00 0.00 78 1014.2
20260901030107 85 0 0.0 3.0 0.00 0.00 0.00 78 1014.1
20260901025608 85 0 0.0 1.0 0.00 0.00 0.00 78 1014.0
20260901025104 85 0 0.0 1.0 0.00 0.00 0.00 77 1013.8
20260901024603 85 0 0.0 2.0 0.00 0.00 0.00 77 1013.8
20260901024103 85 0 0.0 2.0 0.00 0.00 0.00 77 1013.7
20260901023836 86 0 0.0 2.0 0.00 0.00 0.00 76 1013.7
20260901023102 86 0 0.0 2.0 0.00 0.00 0.00 76 1013.6
20260901022600 86 0 0.0 2.0 0.00 0.00 0.00 76 1013.6
20260901022103 86 0 0.0 2.0 0.00 0.00 0.00 76 1013.5
20260901021559 86 0 0.0 2.0 0.00 0.00 0.00 76 1013.4
20260901021102 86 0 0.0 2.0 0.00 0.00 0.00 76 1013.4
20260901020557 86 0 0.0 2.0 0.00 0.00 0.00 75 1013.4
20260901020058 86 0 0.0 2.0 0.00 0.00 0.00 75 1013.3
20260901015556 86 0 0.0 2.0 0.00 0.00 0.00 75 1013.3
20260901015056 87 0 0.0 2.0 0.00 0.00 0.00 75 1013.2
20260901014828 87 0 0.0 3.0 0.00 0.00 0.00 75 1013.2
20260901014100 87 0 0.0 3.0 0.00 0.00 0.00 74 1013.3
20260901013555 87 0 1.0 4.0 0.00 0.00 0.00 74 1013.2
20260901013054 87 0 1.0 4.0 0.00 0.00 0.00 74 1013.2
20260901012555 87 0 0.0 2.0 0.00 0.00 0.00 74 1013.2
20260901012056 87 0 0.0 4.0 0.00 0.00 0.00 74 1013.2
20260901011554 87 0 0.0 4.0 0.00 0.00 0.00 73 1013.2
20260901011054 87 0 0.0 5.0 0.00 0.00 0.00 73 1013.3
20260901010554 88 0 1.0 5.0 0.00 0.00 0.00 73 1013.2
20260901010054 88 0 1.0 3.0 0.00 0.00 0.00 73 1013.2
20260901005555 88 0 1.0 4.0 0.00 0.00 0.00 73 1013.2
20260901005054 88 0 1.0 4.0 0.00 0.00 0.00 73 1013.2
20260901004555 88 0 1.0 4.0 0.00 0.00 0.00 73 1013.2
20260901004056 88 0 1.0 4.0 0.00 0.00 0.00 73 1013.3
20260901003554 88 0 1.0 3.0 0.00 0.00 0.00 73 1013.3
20260901003055 88 0 1.0 3.0 0.00 0.00 0.00 73 1013.3
20260901002555 88 0 1.0 3.0 0.00 0.00 0.00 73 1013.3
20260901002054 88 0 1.0 3.0 0.00 0.00 0.00 73 1013.3
20260901001556 88 0 1.0 3.0 0.00 0.00 0.00 73 1013.3
20260901001056 88 0 0.0 3.0 0.00 0.00 0.00 73 1013.3
20260901000555 88 0 0.0 3.0 0.00 0.00 0.00 73 1013.3
20260901000055 88 0 1.0 4.0 0.00 0.00 0.00 74 1013.2
20260831235555 88 0 1.0 4.0 0.00 0.00 0.00 74 1013.2
20260831235053 88 0 1.0 6.0 0.00 0.00 0.00 74 1013.2
20260831234553 88 153 1.0 6.0 0.00 0.00 0.00 75 1013.3
20260831234055 88 165 1.0 6.0 0.00 0.00 0.00 75 1013.3
20260831233552 87 165 1.0 6.0 0.00 0.00 0.00 75 1013.2
20260831233050 87 170 2.0 6.0 0.00 0.00 0.00 76 1013.3
20260831232821 87 145 2.0 6.0 0.00 0.00 0.00 76 1013.2
20260831232049 87 158 1.0 5.0 0.00 0.00 0.00 76 1013.3
20260831231553 87 150 1.0 3.0 0.00 0.00 0.00 76 1013.3
20260831231051 87 152 1.0 3.0 0.00 0.00 0.00 76 1013.3
20260831230551 87 150 1.0 5.0 0.00 0.00 0.00 76 1013.4
20260831230052 87 150 1.0 5.0 0.00 0.00 0.00 76 1013.3
20260831225546 86 154 1.0 6.0 0.00 0.00 0.00 77 1013.3
20260831225046 86 155 1.0 6.0 0.00 0.00 0.00 76 1013.3
20260831224818 86 190 1.0 6.0 0.00 0.00 0.00 77 1013.4
20260831224044 86 190 1.0 6.0 0.00 0.00 0.00 77 1013.3
20260831223545 85 108 1.0 6.0 0.00 0.00 0.00 78 1013.4
20260831223539 85 108 1.0 6.0 0.00 0.00 0.00 77 1013.4
20260831222542 85 154 1.0 3.0 0.00 0.00 0.00 78 1013.5
20260831222537 85 136 1.0 3.0 0.00 0.00 0.00 78 1013.4
20260831221533 85 0 0.0 4.0 0.00 0.00 0.00 78 1013.5
20260831221302 84 0 1.0 4.0 0.00 0.00 0.00 78 1013.5
20260831221135 85 0 0.0 4.0 0.00 0.00 0.00 78 1013.5
20260831220024 84 0 1.0 5.0 0.00 0.00 0.00 78 1013.6
20260831215523 84 0 1.0 5.0 0.00 0.00 0.00 79 1013.6
20260831215022 84 0 1.0 5.0 0.00 0.00 0.00 79 1013.7
20260831214519 84 0 1.0 5.0 0.00 0.00 0.00 78 1013.8
20260831214017 84 0 0.0 2.0 0.00 0.00 0.00 78 1013.8
20260831213521 84 0 0.0 2.0 0.00 0.00 0.00 78 1013.8
20260831213015 84 0 1.0 3.0 0.00 0.00 0.00 78 1013.9
20260831212748 85 0 1.0 3.0 0.00 0.00 0.00 78 1014.0
20260831212242 85 0 0.0 3.0 0.00 0.00 0.00 77 1014.1
20260831211511 85 0 0.0 1.0 0.00 0.00 0.00 76 1014.1
20260831211011 85 0 0.0 3.0 0.00 0.00 0.00 77 1014.1
20260831210507 85 0 1.0 3.0 0.00 0.00 0.00 77 1014.2
20260831210008 85 0 1.0 3.0 0.00 0.00 0.00 76 1014.3
20260831205505 85 0 1.0 3.0 0.00 0.00 0.00 75 1014.4
20260831205005 86 0 1.0 3.0 0.00 0.00 0.00 75 1014.5
20260831204501 86 0 1.0 3.0 0.00 0.00 0.00 75 1014.5
20260831203959 85 70 1.0 3.0 0.00 0.00 0.00 75 1014.6
20260831203729 86 74 1.0 3.0 0.00 0.00 0.00 78 1014.5
20260831202959 86 123 1.0 6.0 0.00 0.00 0.00 76 1014.6
20260831202457 86 158 1.0 6.0 0.00 0.00 0.00 76 1014.7
20260831202226 87 112 1.0 3.0 0.00 0.00 0.00 75 1014.8
20260831201454 87 148 1.0 5.0 0.00 0.00 0.00 75 1014.7
20260831200955 87 154 1.0 5.0 0.00 0.00 0.00 75 1014.8
20260831200455 87 66 1.0 5.0 0.00 0.00 0.00 77 1014.8
20260831195954 88 138 2.0 5.0 0.00 0.00 0.00 75 1014.8
20260831195455 88 157 2.0 8.0 0.00 0.00 0.00 77 1014.8
20260831194946 89 90 2.0 10.0 0.00 0.00 0.00 75 1014.8
20260831194446 89 155 3.0 10.0 0.00 0.00 0.00 76 1014.8
20260831193943 90 144 4.0 11.0 0.00 0.00 0.00 74 1014.9
20260831193442 89 142 4.0 11.0 0.00 0.00 0.00 73 1015.0
20260831192939 89 182 3.0 11.0 0.00 0.00 0.00 73 1015.0
20260831192439 88 138 3.0 10.0 0.00 0.00 0.00 74 1015.2
20260831191939 89 136 2.0 6.0 0.00 0.00 0.00 74 1015.1
20260831191438 89 71 1.0 4.0 0.00 0.00 0.00 74 1015.1
20260831190937 88 68 0.0 2.0 0.00 0.00 0.00 74 1015.0
20260831190436 88 68 1.0 2.0 0.00 0.00 0.00 75 1015.1
20260831185930 89 69 1.0 5.0 0.00 0.00 0.00 74 1015.2
20260831185430 90 114 1.0 5.0 0.00 0.00 0.00 73 1015.2
20260831184931 90 23 1.0 5.0 0.00 0.00 0.00 71 1015.3
20260831184431 90 163 1.0 5.0 0.00 0.00 0.00 70 1015.3
20260831183929 90 111 1.0 3.0 0.00 0.00 0.00 70 1015.4
20260831183430 91 138 1.0 5.0 0.00 0.00 0.00 68 1015.4
20260831182930 91 138 2.0 5.0 0.00 0.00 0.00 66 1015.4
20260831182430 92 152 1.0 4.0 0.00 0.00 0.00 67 1015.5